Philadelphia Wings Airport, PA

8:53 AM EST on December 09, 2019 (GMT -0500)
Philadelphia Wings Airport

Weather History for KLOM - October, 2019

Change the Weather History Date:

Thursday, October 24, 2019

  Actual Average (WUND) Record (WUND)
Temperature  
Mean Temperature 51 °F -  
Max Temperature 67 °F - - (-1)
Min Temperature 35 °F - - (-1)
Degree Days  
Heating Degree Days 14    
Growing Degree Days 1 (Base 50)    
Moisture  
Dew Point 38 °F    
Average Humidity 72    
Maximum Humidity 100    
Minimum Humidity 30    
Precipitation  
Precipitation 0.00 in - - ()
Sea Level Pressure  
Sea Level Pressure 30.30 in    
Wind  
Wind Speed 2 mph (SSW)    
Max Wind Speed 12 mph    
Max Gust Speed -    
Visibility 10 miles    
Events      
Averages and records for this station are not official NWS values.
T = Trace of Precipitation, MM = Missing Value Source: NWS Daily Summary

Daily Weather History Graph

Daily Weather History Graph

Search for Another Location

Airport or City:

Astronomy

Oct. 24, 2019 Rise Set
Actual Time 7:21 AM EDT 6:08 PM EDT
Civil Twilight 6:53 AM EDT 6:36 PM EDT
Nautical Twilight 6:21 AM EDT 7:08 PM EDT
Astronomical Twilight 5:50 AM EDT 7:39 PM EDT
Moon 2:47 AM EDT (10/24) 4:35 PM EDT (10/24)
Length of Visible Light 11h 43m
Length of Day
10h 47m
Waning Crescent, 17% of the Moon is Illuminated
Oct 24
Waning Crescent
Oct 27
New
Nov 4
First Quarter
Nov 12
Full
Nov 19
Last Quarter

Hourly Weather History & Observations

Time (EDT) Temp. Windchill Dew Point Humidity Pressure Visibility Wind Dir Wind Speed Gust Speed Precip Events Conditions
12:15 AM 40.6 °F - 40.3 °F 99% 30.22 in 10.0 mi Calm Calm - N/A   Clear
12:35 AM 40.8 °F 38.8 °F 39.6 °F 95% 30.22 in 10.0 mi WNW 3.5 mph - N/A   Clear
1:15 AM 39.6 °F - 38.7 °F 97% 30.22 in 10.0 mi Calm Calm - N/A   Clear
1:35 AM 39.4 °F - 38.8 °F 98% 30.23 in 10.0 mi Calm Calm - N/A   Clear
1:55 AM 38.8 °F - 38.1 °F 97% 30.23 in 10.0 mi Calm Calm - N/A   Clear
2:15 AM 37.9 °F - 37.2 °F 97% 30.24 in 10.0 mi Calm Calm - N/A   Clear
2:35 AM 37.9 °F - 37.0 °F 97% 30.25 in 10.0 mi Calm Calm - N/A   Clear
2:55 AM 37.4 °F - 37.0 °F 99% 30.25 in 10.0 mi Calm Calm - N/A   Clear
3:15 AM 37.4 °F - 37.0 °F 99% 30.24 in 10.0 mi Calm Calm - N/A   Clear
3:35 AM 36.5 °F - 36.3 °F 99% 30.24 in 10.0 mi Calm Calm - N/A   Clear
4:15 AM 37.4 °F - 37.0 °F 99% 30.26 in 10.0 mi Calm Calm - N/A   Clear
4:35 AM 36.7 °F - 36.5 °F 99% 30.27 in 10.0 mi Calm Calm - N/A   Clear
4:55 AM 36.1 °F - 35.8 °F 99% 30.28 in 10.0 mi Calm Calm - N/A   Clear
5:15 AM 36.3 °F - 36.1 °F 99% 30.29 in 10.0 mi Calm Calm - N/A   Clear
5:35 AM 35.4 °F - 35.2 °F 99% 30.29 in 10.0 mi Calm Calm - N/A   Clear
5:55 AM 35.8 °F - 35.6 °F 99% 30.30 in 10.0 mi Calm Calm - N/A   Clear
6:15 AM 35.4 °F - 35.2 °F 99% 30.30 in 10.0 mi Calm Calm - N/A   Clear
6:35 AM 35.4 °F - 35.4 °F 100% 30.31 in 10.0 mi Calm Calm - N/A   Clear
6:55 AM 35.2 °F - 35.1 °F 99% 30.31 in 10.0 mi Calm Calm - N/A   Clear
7:15 AM 35.1 °F - 34.9 °F 99% 30.32 in 7.0 mi Calm Calm - N/A   Clear
7:35 AM 35.8 °F - 35.8 °F 100% 30.32 in 10.0 mi Calm Calm - N/A   Clear
7:55 AM 37.0 °F - 35.6 °F 95% 30.32 in 10.0 mi Calm Calm - N/A   Clear
8:15 AM 39.7 °F - 39.4 °F 99% 30.33 in 10.0 mi Calm Calm - N/A   Clear
8:35 AM 44.4 °F 42.9 °F 41.7 °F 90% 30.34 in 10.0 mi WSW 3.5 mph - N/A   Clear
8:55 AM 47.3 °F - 40.8 °F 78% 30.35 in 10.0 mi Calm Calm - N/A   Clear
9:15 AM 49.5 °F - 39.6 °F 69% 30.35 in 10.0 mi Calm Calm - N/A   Clear
9:35 AM 51.6 °F - 40.3 °F 65% 30.35 in 10.0 mi Calm Calm - N/A   Clear
9:55 AM 53.8 °F - 40.3 °F 60% 30.34 in 10.0 mi SSW 3.5 mph - N/A   Clear
10:15 AM 56.5 °F - 37.4 °F 49% 30.35 in 10.0 mi Calm Calm - N/A   Clear
10:35 AM 57.9 °F - 38.1 °F 48% 30.34 in 10.0 mi Calm Calm - N/A   Clear
10:55 AM 60.3 °F - 40.6 °F 48% 30.35 in 10.0 mi Calm Calm - N/A   Clear
11:15 AM 61.9 °F - 37.6 °F 41% 30.35 in 10.0 mi South 3.5 mph - N/A   Clear
11:35 AM 62.2 °F - 34.3 °F 35% 30.35 in 10.0 mi Calm Calm - N/A   Clear
11:55 AM 64.0 °F - 34.9 °F 34% 30.34 in 10.0 mi SSE 3.5 mph - N/A   Clear
12:15 PM 65.5 °F - 36.5 °F 34% 30.34 in 10.0 mi South 11.5 mph - N/A   Clear
12:35 PM 65.7 °F - 34.7 °F 32% 30.32 in 10.0 mi South 8.1 mph - N/A   Clear
12:55 PM 65.8 °F - 34.7 °F 32% 30.31 in 10.0 mi SSW 10.4 mph - N/A   Clear
1:15 PM 66.4 °F - 34.9 °F 31% 30.30 in 10.0 mi SSE 9.2 mph - N/A   Clear
1:35 PM 66.6 °F - 34.9 °F 31% 30.29 in 10.0 mi South 9.2 mph - N/A   Clear
1:55 PM 66.7 °F - 34.3 °F 30% 30.29 in 10.0 mi SSW 9.2 mph - N/A   Clear
2:15 PM 66.2 °F - 33.8 °F 30% 30.29 in 10.0 mi SSW 11.5 mph - N/A   Clear
2:35 PM 66.6 °F - 35.8 °F 32% 30.29 in 10.0 mi South 6.9 mph - N/A   Clear
2:55 PM 67.1 °F - 36.3 °F 32% 30.29 in 10.0 mi SW 8.1 mph - N/A   Clear
3:15 PM 66.4 °F - 36.0 °F 33% 30.29 in 10.0 mi South 6.9 mph - N/A   Clear
3:35 PM 66.2 °F - 33.8 °F 30% 30.29 in 10.0 mi SSW 8.1 mph - N/A   Clear
3:55 PM 66.0 °F - 36.1 °F 33% 30.29 in 10.0 mi SSW 10.4 mph - N/A   Clear
4:15 PM 65.7 °F - 35.8 °F 33% 30.29 in 10.0 mi South 10.4 mph - N/A   Clear
4:35 PM 65.3 °F - 36.1 °F 34% 30.28 in 10.0 mi SSW 6.9 mph - N/A   Clear
4:55 PM 64.6 °F - 35.6 °F 34% 30.29 in 10.0 mi South 8.1 mph - N/A   Clear
5:15 PM 63.9 °F - 36.3 °F 36% 30.29 in 10.0 mi South 8.1 mph - N/A   Clear
5:35 PM 62.1 °F - 37.9 °F 41% 30.29 in 10.0 mi South 4.6 mph - N/A   Clear
5:55 PM 60.6 °F - 37.8 °F 43% 30.29 in 10.0 mi South 5.8 mph - N/A   Clear
6:15 PM 55.2 °F - 42.4 °F 62% 30.29 in 10.0 mi South 3.5 mph - N/A   Clear
6:35 PM 51.1 °F - 45.5 °F 81% 30.29 in 10.0 mi Calm Calm - N/A   Clear
6:55 PM 49.3 °F - 44.8 °F 84% 30.29 in 10.0 mi SSW 3.5 mph - N/A   Clear
7:15 PM 48.7 °F - 44.4 °F 85% 30.30 in 10.0 mi SSW 4.6 mph - N/A   Clear
7:35 PM 48.4 °F - 43.3 °F 83% 30.31 in 10.0 mi SSW 3.5 mph - N/A   Clear
7:55 PM 46.4 °F - 44.1 °F 92% 30.31 in 10.0 mi Calm Calm - N/A   Clear
8:15 PM 45.1 °F - 44.1 °F 96% 30.31 in 10.0 mi Calm Calm - N/A   Clear
8:35 PM 46.4 °F 45.2 °F 42.8 °F 87% 30.31 in 10.0 mi South 3.5 mph - N/A   Clear
8:55 PM 45.3 °F - 42.8 °F 91% 30.31 in 10.0 mi Calm Calm - N/A   Clear
9:15 PM 43.7 °F - 42.6 °F 96% 30.31 in 10.0 mi Calm Calm - N/A   Clear
9:35 PM 50.9 °F - 42.1 °F 72% 30.31 in 10.0 mi SSW 5.8 mph - N/A   Clear
9:55 PM 51.4 °F - 42.1 °F 70% 30.31 in 10.0 mi SSW 5.8 mph - N/A   Clear
10:15 PM 52.0 °F - 43.5 °F 73% 30.31 in 10.0 mi SSW 4.6 mph - N/A   Clear
10:35 PM 47.3 °F - 43.5 °F 87% 30.32 in 10.0 mi Calm Calm - N/A   Clear
10:55 PM 45.0 °F - 43.5 °F 95% 30.32 in 10.0 mi Calm Calm - N/A   Clear
11:15 PM 44.8 °F - 43.5 °F 95% 30.32 in 10.0 mi Calm Calm - N/A   Clear
11:35 PM 43.0 °F - 42.1 °F 97% 30.32 in 10.0 mi Calm Calm - N/A   Clear
11:55 PM 42.8 °F - 41.9 °F 97% 30.32 in 10.0 mi Calm Calm - N/A   Clear